W2GRK-15 Weather Reports


Display with metric or nautical units.
time (UTC)temp
F
wind
direction
speed
MPH
gust
MPH
rain 1hr
in
rain 24hr
in
rain mn
in
humidity
%
barometer
mb
20260502163449 57 344 2.0 4.0 0.00 0.03 0.03 52 1012.9
20260502163325 57 14 5.0 8.0 0.00 0.03 0.03 52 1013.1
20260502163220 57 265 2.0 4.0 0.00 0.03 0.03 53 1013.1
20260502163116 57 143 2.0 4.0 0.00 0.03 0.03 53 1013.0
20260502163027 57 359 3.0 4.0 0.00 0.03 0.03 52 1013.1
20260502162923 57 335 2.0 4.0 0.00 0.03 0.03 51 1013.1
20260502162839 57 146 3.0 4.0 0.00 0.03 0.03 52 1013.0
20260502162730 57 296 2.0 4.0 0.00 0.03 0.03 52 1013.2
20260502162646 57 355 3.0 6.0 0.00 0.03 0.03 52 1013.3
20260502162521 57 347 3.0 6.0 0.00 0.03 0.03 53 1012.9
20260502162417 57 73 1.0 2.0 0.00 0.03 0.03 52 1013.0
20260502162329 57 66 3.0 5.0 0.00 0.03 0.03 52 1013.2
20260502162224 58 339 3.0 5.0 0.00 0.03 0.03 53 1012.9
20260502162120 58 345 4.0 5.0 0.00 0.03 0.03 53 1012.9
20260502162016 57 13 2.0 3.0 0.00 0.03 0.03 55 1013.0
20260502161927 57 46 2.0 4.0 0.00 0.03 0.03 55 1013.0
20260502161823 57 22 2.0 4.0 0.00 0.03 0.03 56 1013.0
20260502161718 57 59 3.0 6.0 0.00 0.03 0.03 55 1013.0
20260502161630 57 68 5.0 7.0 0.00 0.03 0.03 53 1012.9
20260502161526 57 51 3.0 5.0 0.00 0.03 0.03 57 1012.8
20260502161421 57 1 3.0 5.0 0.00 0.03 0.03 56 1012.9
20260502161317 57 171 2.0 4.0 0.00 0.03 0.03 56 1013.0
20260502161249 57 327 4.0 8.0 0.00 0.03 0.03 56 1012.9
20260502161144 57 352 2.0 4.0 0.00 0.03 0.03 55 1012.9
20260502161020 57 349 4.0 5.0 0.00 0.03 0.03 56 1012.9
20260502160915 56 340 2.0 4.0 0.00 0.03 0.03 57 1012.9
20260502160827 56 55 3.0 4.0 0.00 0.03 0.03 55 1013.1
20260502160723 56 49 4.0 8.0 0.00 0.03 0.03 55 1012.9
20260502160618 56 52 6.0 10.0 0.00 0.03 0.03 54 1012.8
20260502160530 56 52 4.0 6.0 0.00 0.03 0.03 55 1012.9
20260502160426 57 37 6.0 9.0 0.00 0.03 0.03 55 1012.9
20260502160321 57 53 3.0 5.0 0.00 0.03 0.03 56 1013.0
20260502160217 57 340 2.0 4.0 0.00 0.03 0.03 55 1012.9
20260502160128 57 39 4.0 6.0 0.00 0.03 0.03 58 1013.0
20260502152322 55 20 1.0 2.0 0.00 0.03 0.03 63 1012.9
20260502152217 55 357 3.0 6.0 0.00 0.03 0.03 62 1013.0
20260502152129 55 53 5.0 6.0 0.00 0.03 0.03 61 1013.0
20260502152025 55 64 2.0 3.0 0.00 0.03 0.03 62 1013.1
20260502152020 55 67 2.0 3.0 0.00 0.03 0.03 63 1013.1
20260502151816 55 51 2.0 2.0 0.00 0.03 0.03 63 1013.1
20260502151747 55 341 3.0 5.0 0.00 0.03 0.03 63 1013.2
20260502151623 54 16 2.0 4.0 0.00 0.03 0.03 63 1013.0
20260502151519 54 355 2.0 4.0 0.00 0.03 0.03 63 1013.0
20260502151430 54 312 2.0 5.0 0.00 0.03 0.03 65 1013.2
20260502151326 54 330 2.0 6.0 0.00 0.03 0.03 63 1013.1
20260502151241 55 338 4.0 6.0 0.00 0.03 0.03 63 1013.2
20260502151117 55 359 2.0 4.0 0.00 0.03 0.03 65 1013.2
20260502151028 54 28 2.0 3.0 0.00 0.03 0.03 65 1013.2
20260502150944 54 355 2.0 3.0 0.00 0.03 0.03 65 1013.3
20260502150820 54 27 4.0 5.0 0.00 0.03 0.03 64 1013.2
20260502150735 54 330 3.0 4.0 0.00 0.03 0.03 65 1013.2
20260502150627 54 304 3.0 6.0 0.00 0.03 0.03 65 1013.1
20260502150523 54 1 2.0 2.0 0.00 0.03 0.03 65 1012.9
20260502150418 54 23 2.0 3.0 0.00 0.03 0.03 64 1013.1
20260502150330 54 25 3.0 5.0 0.00 0.03 0.03 64 1013.0
20260502150226 54 45 5.0 6.0 0.00 0.03 0.03 64 1013.1
20260502150121 54 16 3.0 6.0 0.00 0.03 0.03 65 1013.1
20260502130717 53 346 2.0 4.0 0.00 0.03 0.03 78 1013.2
20260502130649 53 352 2.0 5.0 0.00 0.03 0.03 78 1013.2
20260502130524 54 52 2.0 3.0 0.00 0.03 0.03 78 1013.3
20260502130420 54 2 1.0 3.0 0.00 0.03 0.03 78 1013.3
20260502130336 54 337 2.0 4.0 0.00 0.03 0.03 79 1013.3
20260502130227 54 349 2.0 4.0 0.00 0.03 0.03 79 1013.1
20260502130123 54 3 3.0 3.0 0.00 0.03 0.03 79 1013.1
20260502123723 52 295 2.0 3.0 0.00 0.03 0.03 85 1013.2
20260502123618 52 300 2.0 3.0 0.00 0.03 0.03 85 1013.2
20260502123530 52 250 1.0 2.0 0.00 0.03 0.03 86 1013.2
20260502123425 52 179 2.0 3.0 0.00 0.03 0.03 86 1013.0
20260502123321 52 170 1.0 2.0 0.00 0.03 0.03 86 1013.1
20260502123216 52 305 1.0 3.0 0.00 0.03 0.03 86 1013.1
20260502123148 52 150 0.0 2.0 0.00 0.03 0.03 86 1013.1
20260502123024 51 215 1.0 2.0 0.00 0.03 0.03 86 1013.2
20260502122920 52 346 1.0 2.0 0.00 0.03 0.03 86 1013.0
20260502122815 52 109 1.0 2.0 0.00 0.03 0.03 87 1013.2
20260502122727 51 180 1.0 3.0 0.00 0.03 0.03 87 1013.1
20260502122622 51 187 3.0 4.0 0.00 0.03 0.03 87 1013.3
20260502122518 52 197 2.0 3.0 0.00 0.03 0.03 87 1013.2
20260502122430 52 38 1.0 2.0 0.00 0.03 0.03 88 1013.1
20260502122345 52 184 1.0 2.0 0.00 0.03 0.03 88 1013.2
20260502122221 52 22 0.0 2.0 0.00 0.03 0.03 88 1013.1
20260502122116 51 111 1.0 2.0 0.00 0.03 0.03 88 1013.1
20260502122028 51 74 1.0 2.0 0.00 0.03 0.03 88 1013.1
20260502121923 51 121 1.0 3.0 0.00 0.03 0.03 88 1012.9
20260502121819 51 182 1.0 2.0 0.00 0.03 0.03 88 1012.9
20260502121731 51 32 2.0 2.0 0.00 0.03 0.03 88 1013.0
20260502121626 51 59 0.0 2.0 0.00 0.03 0.03 88 1013.0
20260502121522 51 183 1.0 2.0 0.00 0.03 0.03 89 1013.0
20260502121417 51 170 2.0 3.0 0.00 0.03 0.03 89 1012.9
20260502121329 51 106 0.0 2.0 0.00 0.03 0.03 89 1013.0
20260502121225 51 194 0.0 2.0 0.00 0.03 0.03 89 1013.0
20260502121121 51 0.0 2.0 0.00 0.03 0.03 90 1012.8
20260502121108 51 185 2.0 3.0 0.00 0.03 0.03 90 1013.0
20260502121048 51 168 2.0 3.0 0.00 0.03 0.03 91 1012.9
20260502120823 51 169 2.0 3.0 0.00 0.03 0.03 91 1012.8
20260502120719 50 165 2.0 3.0 0.00 0.03 0.03 91 1012.9
20260502120631 50 149 1.0 2.0 0.00 0.03 0.03 91 1012.9
20260502120546 50 180 2.0 2.0 0.00 0.03 0.03 91 1013.0
20260502120422 50 73 1.0 2.0 0.00 0.03 0.03 91 1012.9
20260502120317 49 159 2.0 3.0 0.00 0.03 0.03 92 1013.0
20260502120229 50 178 3.0 4.0 0.00 0.03 0.03 92 1012.8
20260502120145 50 164 3.0 4.0 0.00 0.03 0.03 93 1013.0
20260502115916 50 177 2.0 3.0 0.00 0.03 0.03 94 1013.0
20260502115827 50 181 2.0 4.0 0.00 0.03 0.03 95 1012.9
20260502115723 50 149 2.0 3.0 0.00 0.03 0.03 95 1013.1
20260502115619 50 168 2.0 3.0 0.00 0.03 0.03 95 1013.0
20260502115530 50 180 2.0 3.0 0.00 0.03 0.03 95 1013.1
20260502115446 50 193 2.0 2.0 0.00 0.03 0.03 95 1013.0
20260502115322 50 177 1.0 2.0 0.00 0.03 0.03 96 1013.2
20260502115237 50 154 1.0 3.0 0.00 0.03 0.03 96 1013.0
20260502115209 50 141 2.0 3.0 0.00 0.03 0.03 96 1013.0
20260502115045 50 172 2.0 3.0 0.00 0.03 0.03 96 1013.1
20260502114920 49 164 2.0 3.0 0.00 0.03 0.03 96 1013.1
20260502114815 50 163 1.0 2.0 0.00 0.03 0.03 96 1013.1
20260502114747 50 146 0.0 2.0 0.00 0.03 0.03 96 1013.0
20260502114623 50 160 1.0 2.0 0.00 0.03 0.03 96 1012.9
20260502114518 50 0.0 1.0 0.00 0.03 0.03 96 1012.9
20260502114430 50 127 0.0 2.0 0.00 0.03 0.03 96 1012.9
20260502114326 50 151 1.0 2.0 0.00 0.03 0.03 96 1013.0
20260502114221 50 118 1.0 2.0 0.00 0.03 0.03 96 1012.9
20260502114117 49 99 0.0 2.0 0.00 0.03 0.03 96 1012.8
20260502114028 49 123 2.0 2.0 0.00 0.03 0.03 96 1012.9
20260502113924 49 146 1.0 2.0 0.00 0.03 0.03 96 1012.9
20260502113820 49 132 2.0 3.0 0.00 0.03 0.03 96 1012.8
20260502113715 49 119 2.0 3.0 0.00 0.03 0.03 96 1012.9
20260502113627 49 104 1.0 2.0 0.00 0.03 0.03 96 1012.9
20260502113522 49 134 2.0 2.0 0.00 0.03 0.03 97 1013.0
20260502113418 49 147 2.0 2.0 0.00 0.03 0.03 97 1012.8
20260502113330 49 146 2.0 2.0 0.00 0.03 0.03 97 1013.0
20260502113225 49 131 2.0 2.0 0.00 0.03 0.03 97 1012.8
20260502113121 49 160 2.0 3.0 0.00 0.03 0.03 97 1012.8
20260502113016 49 139 2.0 3.0 0.00 0.03 0.03 97 1013.0
20260502112928 49 126 2.0 3.0 0.00 0.03 0.03 97 1012.6
20260502112824 49 119 2.0 2.0 0.00 0.03 0.03 97 1012.8
20260502112720 49 150 2.0 2.0 0.00 0.03 0.03 97 1012.7
20260502112635 49 151 2.0 2.0 0.00 0.03 0.03 97 1012.7
20260502112527 49 151 1.0 3.0 0.00 0.03 0.03 97 1012.8
20260502112422 49 150 1.0 3.0 0.00 0.03 0.03 97 1012.7
20260502112318 49 151 1.0 2.0 0.00 0.03 0.03 97 1012.8
20260502112229 49 165 2.0 2.0 0.00 0.03 0.03 97 1012.8
20260502112205 49 144 1.0 2.0 0.00 0.03 0.03 97 1012.7
20260502112020 48 142 2.0 2.0 0.00 0.03 0.03 97 1012.8
20260502111916 48 147 1.0 2.0 0.00 0.03 0.03 97 1012.7
20260502111828 48 136 0.0 2.0 0.00 0.03 0.03 97 1012.6
20260502111724 48 14 1.0 2.0 0.00 0.03 0.03 97 1012.6
20260502111619 48 0.0 2.0 0.00 0.03 0.03 97 1012.6
20260502111551 48 49 0.0 2.0 0.00 0.03 0.03 97 1012.8
20260502111446 48 115 0.0 1.0 0.00 0.03 0.03 97 1012.6
20260502111322 48 0.0 1.0 0.00 0.03 0.03 97 1012.7
20260502111218 48 30 0.0 1.0 0.00 0.03 0.03 97 1012.8
20260502111130 48 0.0 1.0 0.00 0.03 0.03 97 1012.7
20260502111025 48 0.0 0.0 0.00 0.03 0.03 97 1012.7
20260502110920 48 76 1.0 2.0 0.00 0.03 0.03 97 1012.7
20260502110816 48 65 1.0 2.0 0.00 0.03 0.03 97 1012.8
20260502110728 48 145 0.0 2.0 0.00 0.03 0.03 97 1012.8
20260502110623 48 102 0.0 2.0 0.00 0.03 0.03 97 1012.9
20260502110519 48 0.0 2.0 0.00 0.03 0.03 97 1012.8
20260502110431 48 141 0.0 1.0 0.00 0.03 0.03 97 1012.9
20260502110326 48 124 1.0 2.0 0.00 0.03 0.03 97 1012.8
20260502110242 48 118 1.0 2.0 0.00 0.03 0.03 97 1012.7
20260502110117 48 147 1.0 2.0 0.00 0.03 0.03 97 1012.9
20260502110029 48 166 1.0 2.0 0.00 0.03 0.03 97 1012.8
20260502105925 48 171 1.0 2.0 0.00 0.03 0.03 96 1012.7
20260502105820 48 109 1.0 2.0 0.00 0.03 0.03 96 1012.8
20260502105716 48 0.0 1.0 0.00 0.03 0.03 96 1012.9
20260502105627 48 158 1.0 2.0 0.00 0.03 0.03 96 1012.6
20260502105523 48 163 1.0 2.0 0.00 0.03 0.03 96 1012.6
20260502105438 48 149 1.0 2.0 0.00 0.03 0.03 96 1012.8
20260502105330 48 160 2.0 2.0 0.00 0.03 0.03 96 1012.8
20260502105225 48 166 0.0 2.0 0.00 0.03 0.03 96 1012.7
20260502105121 48 163 1.0 1.0 0.00 0.03 0.03 96 1012.9
20260502105037 48 165 2.0 2.0 0.00 0.03 0.03 96 1012.8
20260502104929 48 170 2.0 2.0 0.00 0.03 0.03 96 1012.7
20260502104824 48 177 1.0 2.0 0.00 0.03 0.03 96 1012.7
20260502104720 48 186 1.0 2.0 0.00 0.03 0.03 96 1012.9
20260502104615 48 184 1.0 2.0 0.00 0.03 0.03 96 1012.8
20260502104547 48 137 1.0 2.0 0.00 0.03 0.03 96 1012.5
20260502104422 48 64 0.0 1.0 0.00 0.03 0.03 96 1012.5
20260502104318 48 0.0 1.0 0.00 0.03 0.03 96 1012.6
20260502104229 48 0.0 2.0 0.00 0.03 0.03 96 1012.5
20260502104125 48 154 1.0 2.0 0.00 0.03 0.03 96 1012.6
20260502104020 48 172 1.0 2.0 0.00 0.03 0.03 96 1012.5
20260502103916 48 175 2.0 3.0 0.00 0.03 0.03 96 1012.5
20260502103828 48 184 3.0 3.0 0.00 0.03 0.03 96 1012.6
20260502103724 47 177 2.0 4.0 0.00 0.03 0.03 96 1012.4
20260502103619 47 161 1.0 2.0 0.00 0.03 0.03 96 1012.3
20260502103531 47 164 1.0 2.0 0.00 0.03 0.03 96 1012.5
20260502103426 47 148 1.0 2.0 0.00 0.03 0.03 95 1012.5
20260502103322 48 149 1.0 2.0 0.00 0.03 0.03 95 1012.4
20260502103218 48 152 2.0 2.0 0.00 0.03 0.03 95 1012.5
20260502103129 48 157 2.0 2.0 0.00 0.03 0.03 95 1012.5
20260502103025 48 151 2.0 2.0 0.00 0.03 0.03 95 1012.4
20260502102920 48 156 2.0 2.0 0.00 0.03 0.03 95 1012.3
20260502102816 47 151 2.0 3.0 0.00 0.03 0.03 95 1012.5
20260502102728 47 147 2.0 2.0 0.00 0.03 0.03 95 1012.4
20260502102703 47 142 1.0 2.0 0.00 0.03 0.03 95 1012.3
20260502102519 47 0.0 2.0 0.00 0.03 0.03 95 1012.3
20260502102430 47 158 0.0 2.0 0.00 0.03 0.03 95 1012.3
20260502102326 47 130 1.0 2.0 0.01 0.03 0.03 95 1012.4
20260502102222 47 123 1.0 2.0 0.01 0.03 0.03 95 1012.4
20260502102117 47 0.0 2.0 0.01 0.03 0.03 95 1012.3
20260502102029 47 135 1.0 2.0 0.01 0.03 0.03 94 1012.1
20260502101925 48 121 1.0 2.0 0.01 0.03 0.03 94 1012.4
20260502101820 48 142 0.0 2.0 0.01 0.03 0.03 94 1012.3
20260502101716 47 112 1.0 2.0 0.01 0.03 0.03 94 1012.2
20260502101627 48 157 1.0 2.0 0.01 0.03 0.03 94 1011.9
20260502101523 47 169 0.0 2.0 0.01 0.03 0.03 94 1012.1
20260502101419 47 0.0 2.0 0.01 0.03 0.03 94 1012.0
20260502101330 47 0.0 1.0 0.01 0.03 0.03 94 1012.0
20260502101226 47 148 0.0 2.0 0.01 0.03 0.03 94 1012.1
20260502101121 47 158 0.0 2.0 0.01 0.03 0.03 94 1012.2
20260502101017 47 131 1.0 2.0 0.01 0.03 0.03 94 1012.1
20260502100929 47 146 1.0 2.0 0.01 0.03 0.03 94 1012.1
20260502100824 47 130 0.0 2.0 0.02 0.03 0.03 94 1012.1
20260502100720 48 0.0 1.0 0.02 0.03 0.03 94 1012.2
20260502100635 48 119 1.0 2.0 0.02 0.03 0.03 94 1012.2
20260502100527 48 137 1.0 2.0 0.02 0.03 0.03 94 1012.1
20260502100423 48 122 1.0 2.0 0.02 0.03 0.03 94 1012.2
20260502100339 48 142 1.0 2.0 0.02 0.03 0.03 94 1012.2
20260502100230 48 153 1.0 2.0 0.02 0.03 0.03 94 1012.1
20260502100126 48 142 1.0 2.0 0.02 0.03 0.03 94 1012.0
20260502091516 50 137 2.0 2.0 0.01 0.02 0.02 89 1012.4
20260502091427 50 132 1.0 3.0 0.01 0.02 0.02 89 1012.4
20260502091323 50 161 2.0 3.0 0.01 0.02 0.02 89 1012.3
20260502091218 50 156 1.0 2.0 0.01 0.02 0.02 88 1012.3
20260502091130 50 125 2.0 2.0 0.01 0.02 0.02 88 1012.3
20260502091026 50 94 2.0 3.0 0.01 0.02 0.02 88 1012.2
20260502090921 50 93 2.0 2.0 0.01 0.02 0.02 88 1012.2
20260502090817 50 99 2.0 3.0 0.00 0.01 0.01 88 1012.4
20260502090728 50 107 2.0 2.0 0.00 0.01 0.01 87 1012.4
20260502090624 50 149 2.0 3.0 0.00 0.01 0.01 87 1012.5
20260502090520 50 151 2.0 3.0 0.00 0.01 0.01 86 1012.5
20260502090415 50 174 1.0 2.0 0.00 0.01 0.01 86 1012.5
20260502090327 50 199 2.0 2.0 0.00 0.01 0.01 86 1012.4
20260502090222 50 177 2.0 3.0 0.00 0.01 0.01 86 1012.5
20260502090118 50 175 2.0 2.0 0.00 0.01 0.01 86 1012.4
20260502071531 51 161 1.0 2.0 0.01 0.01 0.01 81 1012.1
20260502071426 51 143 1.0 2.0 0.01 0.01 0.01 81 1011.9
20260502071322 51 179 0.0 3.0 0.01 0.01 0.01 81 1012.0
20260502071218 51 182 2.0 3.0 0.01 0.01 0.01 81 1012.1
20260502071129 51 180 2.0 2.0 0.01 0.01 0.01 81 1012.0
20260502071025 51 184 1.0 2.0 0.01 0.01 0.01 81 1011.9
20260502070920 51 192 1.0 2.0 0.01 0.01 0.01 81 1012.1
20260502070836 51 206 1.0 2.0 0.01 0.01 0.01 81 1012.1
20260502070727 51 212 2.0 2.0 0.01 0.01 0.01 82 1012.0
20260502070623 51 201 0.0 2.0 0.01 0.01 0.01 82 1012.0
20260502070539 51 175 2.0 2.0 0.01 0.01 0.01 81 1012.0
20260502070430 51 184 1.0 2.0 0.01 0.01 0.01 82 1012.2
20260502070346 51 142 1.0 2.0 0.01 0.01 0.01 82 1011.9
20260502070222 51 148 2.0 2.0 0.01 0.01 0.01 82 1012.1
20260502070117 51 152 1.0 2.0 0.01 0.01 0.01 82 1012.0
20260502070029 51 199 2.0 3.0 0.01 0.01 0.01 82 1012.0
20260502065924 51 197 2.0 4.0 0.01 0.01 0.01 82 1011.9
20260502065840 51 196 1.0 2.0 0.01 0.01 0.01 83 1012.2
20260502065715 51 177 2.0 3.0 0.01 0.01 0.01 82 1012.0
20260502065627 51 165 2.0 2.0 0.01 0.01 0.01 82 1012.1
20260502065522 51 164 2.0 2.0 0.01 0.01 0.01 82 1012.1
20260502065418 51 156 2.0 2.0 0.01 0.01 0.01 82 1012.0
20260502065330 51 159 2.0 3.0 0.01 0.01 0.01 83 1012.1
20260502065245 51 157 2.0 3.0 0.01 0.01 0.01 82 1012.0
20260502065121 51 160 2.0 3.0 0.01 0.01 0.01 82 1012.2
20260502065036 51 162 2.0 3.0 0.01 0.01 0.01 81 1012.2
20260502064928 51 179 3.0 3.0 0.01 0.01 0.01 81 1012.2
20260502064824 51 189 3.0 3.0 0.01 0.01 0.01 81 1012.1
20260502064719 51 187 2.0 3.0 0.01 0.01 0.01 80 1011.9
20260502064631 51 190 1.0 2.0 0.01 0.01 0.01 80 1012.0
20260502064526 51 201 1.0 2.0 0.01 0.01 0.01 80 1011.8
20260502064422 51 7 1.0 1.0 0.01 0.01 0.01 80 1011.9
20260502064318 52 0.0 1.0 0.01 0.01 0.01 80 1012.0
20260502064250 52 51 1.0 1.0 0.01 0.01 0.01 80 1012.2
20260502064125 52 22 0.0 1.0 0.01 0.01 0.01 80 1012.1
20260502064021 52 0.0 2.0 0.01 0.01 0.01 80 1012.0
20260502063916 52 93 0.0 2.0 0.01 0.01 0.01 80 1011.9
20260502063828 52 100 1.0 2.0 0.01 0.01 0.01 79 1012.0
20260502063724 52 145 2.0 3.0 0.01 0.01 0.01 79 1012.0
20260502063619 52 161 2.0 2.0 0.01 0.01 0.01 79 1011.9
20260502063531 52 118 1.0 2.0 0.01 0.01 0.01 79 1012.0
20260502063426 52 127 2.0 3.0 0.01 0.01 0.01 79 1012.2
20260502063342 52 144 1.0 2.0 0.01 0.01 0.01 77 1012.3
20260502063218 52 205 1.0 2.0 0.01 0.01 0.01 77 1012.2
20260502063129 52 110 1.0 2.0 0.01 0.01 0.01 77 1012.2
20260502063025 52 157 0.0 2.0 0.01 0.01 0.01 77 1012.3
20260502062921 52 206 1.0 2.0 0.01 0.01 0.01 77 1012.4
20260502062816 52 195 1.0 2.0 0.01 0.01 0.01 77 1012.4
20260502062727 52 216 2.0 2.0 0.01 0.01 0.01 77 1012.2
20260502062623 53 221 2.0 3.0 0.01 0.01 0.01 76 1012.2
20260502062518 53 177 2.0 4.0 0.01 0.01 0.01 75 1012.2
20260502062430 53 180 1.0 3.0 0.00 0.00 0.00 75 1012.1
20260502062326 53 145 0.0 2.0 0.00 0.00 0.00 75 1012.2
20260502062221 53 155 1.0 2.0 0.00 0.00 0.00 74 1012.2
20260502062117 53 175 2.0 2.0 0.00 0.00 0.00 74 1012.4
20260502062028 53 218 1.0 2.0 0.00 0.00 0.00 73 1012.3
20260502061924 53 152 1.0 2.0 0.00 0.00 0.00 73 1012.3
20260502061839 53 181 2.0 2.0 0.00 0.00 0.00 72 1012.3
20260502061715 53 157 2.0 4.0 0.00 0.00 0.00 73 1012.4
20260502061627 53 166 1.0 3.0 0.00 0.00 0.00 72 1012.5
20260502061522 53 315 1.0 3.0 0.00 0.00 0.00 72 1012.5
20260502061418 53 195 2.0 3.0 0.00 0.00 0.00 72 1012.7
20260502061350 53 196 2.0 4.0 0.00 0.00 0.00 72 1012.6
20260502061245 53 193 2.0 4.0 0.00 0.00 0.00 72 1012.4
20260502061141 53 263 1.0 2.0 0.00 0.00 0.00 72 1012.4
20260502061016 53 195 2.0 4.0 0.00 0.00 0.00 72 1012.5
20260502060928 53 188 2.0 3.0 0.00 0.00 0.00 72 1012.6
20260502060823 53 203 3.0 5.0 0.00 0.00 0.00 72 1012.6
20260502060719 53 188 4.0 5.0 0.00 0.00 0.00 72 1012.5
20260502060631 53 203 1.0 2.0 0.00 0.00 0.00 72 1012.7
20260502060527 53 197 2.0 3.0 0.00 0.00 0.00 73 1012.7
20260502060442 53 168 1.0 2.0 0.00 0.00 0.00 73 1012.5
20260502060318 53 190 2.0 3.0 0.00 0.00 0.00 72 1012.7
20260502060249 53 190 2.0 4.0 0.00 0.00 0.00 72 1012.5
20260502060145 53 183 3.0 4.0 0.00 0.00 0.00 72 1012.5
20260502060021 53 179 2.0 3.0 0.00 0.00 0.00 71 1012.7
20260502055916 53 187 2.0 3.0 0.00 0.00 0.00 71 1012.6
20260502055848 53 178 2.0 4.0 0.00 0.00 0.00 71 1012.6
20260502055723 53 207 1.0 2.0 0.00 0.00 0.00 71 1012.8
20260502055619 53 199 0.0 2.0 0.00 0.00 0.00 70 1012.9
20260502055611 53 186 1.0 4.0 0.00 0.00 0.00 70 1012.7
20260502055426 53 250 2.0 4.0 0.00 0.00 0.00 70 1012.7
20260502055322 53 184 2.0 4.0 0.00 0.00 0.00 70 1012.7
20260502055217 53 188 3.0 4.0 0.00 0.00 0.00 71 1012.7
20260502055129 53 188 2.0 3.0 0.00 0.00 0.00 71 1012.7
20260502055025 53 181 2.0 3.0 0.00 0.00 0.00 70 1012.6
20260502054920 53 203 2.0 2.0 0.00 0.00 0.00 70 1012.8
20260502054816 53 183 2.0 2.0 0.00 0.00 0.00 70 1012.7
20260502054727 53 188 2.0 2.0 0.00 0.00 0.00 70 1012.9
20260502054623 53 196 2.0 3.0 0.00 0.00 0.00 70 1012.5
20260502054523 53 209 1.0 3.0 0.00 0.00 0.00 70 1012.6
20260502054430 53 184 1.0 4.0 0.00 0.00 0.00 70 1012.5
20260502054326 53 176 1.0 2.0 0.00 0.00 0.00 70 1012.5
20260502054221 53 196 1.0 2.0 0.00 0.00 0.00 70 1012.7
20260502054117 53 243 0.0 2.0 0.00 0.00 0.00 69 1012.5
20260502054029 53 0.0 2.0 0.00 0.00 0.00 70 1012.5
20260502053924 53 171 2.0 3.0 0.00 0.00 0.00 70 1012.7
20260502053819 53 174 3.0 3.0 0.00 0.00 0.00 70 1012.7
20260502053715 53 164 1.0 2.0 0.00 0.00 0.00 70 1012.7
20260502053627 53 158 0.0 2.0 0.00 0.00 0.00 69 1012.7
20260502053522 53 228 1.0 3.0 0.00 0.00 0.00 69 1012.5
20260502053418 53 214 1.0 2.0 0.00 0.00 0.00 70 1012.6
20260502053329 53 171 1.0 2.0 0.00 0.00 0.00 70 1012.6
20260502053225 53 171 1.0 2.0 0.00 0.00 0.00 69 1012.4
20260502053121 53 177 2.0 2.0 0.00 0.00 0.00 69 1012.4
20260502053016 53 188 1.0 2.0 0.00 0.00 0.00 69 1012.4
20260502052928 53 177 1.0 3.0 0.00 0.00 0.00 69 1012.4
20260502052824 53 211 2.0 2.0 0.00 0.00 0.00 69 1012.4
20260502052719 53 178 1.0 2.0 0.00 0.00 0.00 68 1012.2
20260502052651 53 185 1.0 2.0 0.00 0.00 0.00 68 1012.4
20260502052546 53 175 1.0 2.0 0.00 0.00 0.00 68 1012.4
20260502052442 53 224 2.0 3.0 0.00 0.00 0.00 68 1012.5
20260502052317 53 193 3.0 4.0 0.00 0.00 0.00 68 1012.5
20260502052249 53 205 1.0 2.0 0.00 0.00 0.00 68 1012.5
20260502052125 53 201 2.0 3.0 0.00 0.00 0.00 68 1012.7
20260502052020 53 173 2.0 3.0 0.00 0.00 0.00 68 1012.6
20260502051916 53 186 3.0 4.0 0.00 0.00 0.00 67 1012.5
20260502051827 53 190 2.0 3.0 0.00 0.00 0.00 67 1012.5
20260502051723 54 187 2.0 3.0 0.00 0.00 0.00 67 1012.5
20260502051618 54 202 2.0 3.0 0.00 0.00 0.00 67 1012.5
20260502051530 54 193 2.0 5.0 0.00 0.00 0.00 67 1012.5
20260502051426 54 191 2.0 4.0 0.00 0.00 0.00 67 1012.6
20260502051321 54 210 3.0 4.0 0.00 0.00 0.00 67 1012.4
20260502051217 54 183 3.0 4.0 0.00 0.00 0.00 67 1012.5
20260502051128 54 187 2.0 3.0 0.00 0.00 0.00 67 1012.4
20260502051024 54 189 3.0 4.0 0.00 0.00 0.00 66 1012.5
20260502050919 54 188 3.0 4.0 0.00 0.00 0.00 67 1012.6
20260502050815 54 174 2.0 3.0 0.00 0.00 0.00 67 1012.5
20260502050747 54 161 2.0 2.0 0.00 0.00 0.00 67 1012.4
20260502050622 54 156 2.0 3.0 0.00 0.00 0.00 67 1012.5
20260502050518 54 177 2.0 3.0 0.00 0.00 0.00 67 1012.7
20260502050430 54 170 2.0 3.0 0.00 0.00 0.00 67 1012.5
20260502050325 54 168 2.0 3.0 0.00 0.00 0.00 66 1012.4
20260502050221 54 176 2.0 4.0 0.00 0.00 0.00 66 1012.5
20260502050116 54 163 2.0 3.0 0.00 0.00 0.00 66 1012.6
20260502050028 54 168 2.0 2.0 0.00 0.00 0.00 66 1012.6
20260502045923 54 0.0 1.0 0.00 0.00 0.00 65 1012.6
20260502045819 54 190 1.0 3.0 0.00 0.00 0.00 65 1012.6
20260502045731 54 195 2.0 3.0 0.00 0.00 0.00 65 1012.6
20260502045726 54 171 1.0 2.0 0.00 0.00 0.00 65 1012.7
20260502045522 54 163 1.0 2.0 0.00 0.00 0.00 65 1012.6
20260502045417 54 194 0.0 3.0 0.00 0.00 0.00 64 1012.6
20260502045329 54 183 2.0 4.0 0.00 0.00 0.00 65 1012.6
20260502045225 54 191 2.0 4.0 0.00 0.00 0.00 65 1012.7
20260502045120 54 186 1.0 3.0 0.00 0.00 0.00 64 1012.8
20260502045016 54 227 1.0 3.0 0.00 0.00 0.00 64 1012.6
20260502044927 54 193 1.0 2.0 0.00 0.00 0.00 64 1012.7
20260502044823 54 197 1.0 4.0 0.00 0.00 0.00 64 1012.5
20260502044718 54 200 3.0 4.0 0.00 0.00 0.00 64 1012.6
20260502044630 54 192 2.0 3.0 0.00 0.00 0.00 64 1012.6
20260502044526 54 179 1.0 3.0 0.00 0.00 0.00 64 1012.4
20260502044421 54 180 2.0 3.0 0.00 0.00 0.00 64 1012.4
20260502044317 54 182 3.0 4.0 0.00 0.00 0.00 63 1012.6
20260502044249 54 185 2.0 3.0 0.00 0.00 0.00 64 1012.4
20260502044204 54 173 2.0 2.0 0.00 0.00 0.00 65 1012.4
20260502044020 54 166 2.0 2.0 0.00 0.00 0.00 65 1012.3
20260502043935 54 161 2.0 3.0 0.00 0.00 0.00 64 1012.4
20260502043827 54 159 1.0 2.0 0.00 0.00 0.00 65 1012.4
20260502043723 55 167 1.0 2.0 0.00 0.00 0.00 64 1012.3
20260502043618 55 120 2.0 3.0 0.00 0.00 0.00 63 1012.2
20260502043530 55 214 3.0 4.0 0.00 0.00 0.00 62 1012.4
20260502043425 54 173 2.0 3.0 0.00 0.00 0.00 64 1012.4
20260502043321 54 179 3.0 4.0 0.00 0.00 0.00 62 1012.2
20260502043217 54 159 2.0 3.0 0.00 0.00 0.00 63 1012.4
20260502043128 54 168 2.0 3.0 0.00 0.00 0.00 63 1012.3
20260502043024 55 167 2.0 3.0 0.00 0.00 0.00 64 1012.2
20260502042920 55 164 1.0 2.0 0.00 0.00 0.00 62 1012.2
20260502042835 55 166 0.0 2.0 0.00 0.00 0.00 63 1012.3
20260502042727 55 125 1.0 2.0 0.00 0.00 0.00 62 1012.3
20260502042623 55 0.0 1.0 0.00 0.00 0.00 63 1012.3
20260502042518 55 127 0.0 1.0 0.00 0.00 0.00 63 1012.3
20260502042450 55 128 1.0 2.0 0.00 0.00 0.00 63 1012.3
20260502042325 55 126 2.0 2.0 0.00 0.00 0.00 63 1012.3
20260502042221 55 136 1.0 2.0 0.00 0.00 0.00 62 1012.2
20260502042117 55 146 1.0 2.0 0.00 0.00 0.00 62 1012.2
20260502042028 55 171 1.0 2.0 0.00 0.00 0.00 61 1012.5
20260502041924 55 171 2.0 3.0 0.00 0.00 0.00 60 1012.5
20260502041819 55 168 2.0 3.0 0.00 0.00 0.00 60 1012.5
20260502041751 55 179 2.0 3.0 0.00 0.00 0.00 60 1012.5
20260502041627 55 181 2.0 4.0 0.00 0.00 0.00 61 1012.4
20260502041522 55 166 2.0 3.0 0.00 0.00 0.00 60 1012.5
20260502041418 55 205 2.0 3.0 0.00 0.00 0.00 61 1012.5
20260502041329 55 212 1.0 2.0 0.00 0.00 0.00 61 1012.5
20260502041225 55 202 1.0 3.0 0.00 0.00 0.00 61 1012.7
20260502041121 55 179 1.0 2.0 0.00 0.00 0.00 62 1012.6
20260502041016 55 145 1.0 3.0 0.00 0.00 0.00 63 1012.4
20260502040928 55 155 1.0 3.0 0.00 0.00 0.00 61 1012.4
20260502040823 55 226 1.0 3.0 0.00 0.00 0.00 61 1012.4
20260502040719 55 76 0.0 2.0 0.00 0.00 0.00 62 1012.6
20260502040631 55 101 1.0 2.0 0.00 0.00 0.00 63 1012.5
20260502040526 55 138 1.0 2.0 0.00 0.00 0.00 63 1012.6
20260502040422 55 131 1.0 2.0 0.00 0.00 0.00 62 1012.5
20260502040337 55 0.0 2.0 0.00 0.00 0.00 63 1012.3
20260502040229 55 139 1.0 2.0 0.00 0.00 0.00 62 1012.6
20260502040145 55 174 2.0 2.0 0.00 0.00 0.00 61 1012.6
20260502040020 55 149 2.0 3.0 0.00 0.00 0.00 60 1012.5
20260502035936 55 187 2.0 4.0 0.00 0.00 0.00 59 1012.6
20260502035827 55 173 2.0 4.0 0.00 0.00 0.00 59 1012.5
20260502035823 55 153 2.0 5.0 0.00 0.00 0.00 60 1012.5
20260502035639 55 143 2.0 3.0 0.00 0.00 0.00 61 1012.6
20260502035530 55 157 1.0 2.0 0.00 0.00 0.00 62 1012.7
20260502035426 55 150 2.0 3.0 0.00 0.00 0.00 62 1012.5
20260502035321 55 161 2.0 3.0 0.00 0.00 0.00 61 1012.6
20260502035237 55 177 1.0 3.0 0.00 0.00 0.00 61 1012.7
20260502035129 55 160 1.0 3.0 0.00 0.00 0.00 59 1012.6
20260502035024 55 214 2.0 3.0 0.00 0.00 0.00 59 1012.6
20260502034920 55 258 2.0 4.0 0.00 0.00 0.00 59 1012.7
20260502034816 55 159 1.0 2.0 0.00 0.00 0.00 59 1012.7
20260502034727 55 177 1.0 2.0 0.00 0.00 0.00 60 1012.6
20260502034623 55 174 1.0 2.0 0.00 0.00 0.00 60 1012.7
20260502034519 55 205 0.0 2.0 0.00 0.00 0.00 60 1012.6
20260502034430 55 189 1.0 2.0 0.00 0.00 0.00 60 1012.6
20260502034346 55 156 1.0 2.0 0.00 0.00 0.00 60 1012.5
20260502034221 55 209 1.0 2.0 0.00 0.00 0.00 60 1012.5
20260502034117 55 159 1.0 2.0 0.00 0.00 0.00 61 1012.6
20260502034029 55 159 2.0 2.0 0.00 0.00 0.00 62 1012.4
20260502033944 55 144 1.0 2.0 0.00 0.00 0.00 64 1012.4
20260502033820 55 162 1.0 2.0 0.00 0.00 0.00 63 1012.4
20260502033715 55 194 1.0 2.0 0.00 0.00 0.00 62 1012.4
20260502033627 54 189 1.0 2.0 0.00 0.00 0.00 62 1012.3
20260502033523 54 188 1.0 2.0 0.00 0.00 0.00 63 1012.5
20260502033419 54 160 1.0 2.0 0.00 0.00 0.00 66 1012.3
20260502033330 54 141 1.0 2.0 0.00 0.00 0.00 67 1012.4
20260502033226 54 169 1.0 2.0 0.00 0.00 0.00 64 1012.2
20260502033121 54 196 0.0 3.0 0.00 0.00 0.00 64 1012.1
20260502033017 54 151 1.0 2.0 0.00 0.00 0.00 67 1012.2
20260502032949 54 122 1.0 2.0 0.00 0.00 0.00 68 1012.3
20260502032824 54 133 1.0 3.0 0.00 0.00 0.00 68 1012.3
20260502032740 54 120 1.0 3.0 0.00 0.00 0.00 67 1012.2
20260502032615 54 134 2.0 2.0 0.00 0.00 0.00 67 1012.2
20260502032527 54 149 2.0 2.0 0.00 0.00 0.00 67 1012.3
20260502032423 54 137 1.0 3.0 0.00 0.00 0.00 67 1012.2
20260502032338 54 121 1.0 1.0 0.00 0.00 0.00 67 1012.3
20260502032250 54 133 1.0 2.0 0.00 0.00 0.00 67 1012.4
20260502032125 54 125 2.0 2.0 0.00 0.00 0.00 67 1012.3
20260502032021 54 128 1.0 3.0 0.00 0.00 0.00 68 1012.3
20260502031916 54 116 1.0 2.0 0.00 0.00 0.00 68 1012.3
20260502031829 54 130 1.0 2.0 0.00 0.00 0.00 67 1012.1
20260502031724 54 108 1.0 2.0 0.00 0.00 0.00 67 1012.2
20260502031619 54 120 2.0 3.0 0.00 0.00 0.00 67 1012.3
20260502031531 54 151 2.0 2.0 0.00 0.00 0.00 66 1012.3
20260502031426 54 134 2.0 2.0 0.00 0.00 0.00 66 1012.2
20260502031322 54 132 2.0 3.0 0.00 0.00 0.00 66 1012.2
20260502031218 54 117 2.0 3.0 0.00 0.00 0.00 66 1012.3
20260502031149 54 132 2.0 2.0 0.00 0.00 0.00 66 1012.3
20260502031025 54 146 0.0 2.0 0.00 0.00 0.00 66 1012.4
20260502031000 54 114 1.0 2.0 0.00 0.00 0.00 66 1012.3
20260502030816 54 125 2.0 2.0 0.00 0.00 0.00 67 1012.3
20260502030728 54 119 1.0 2.0 0.00 0.00 0.00 67 1012.4
20260502030623 54 0.0 1.0 0.00 0.00 0.00 67 1012.3
20260502030519 54 0.0 1.0 0.00 0.00 0.00 68 1012.5
20260502030430 54 0.0 0.0 0.00 0.00 0.00 68 1012.6
20260502030326 54 129 0.0 1.0 0.00 0.00 0.00 68 1012.6
20260502030221 54 126 1.0 2.0 0.00 0.00 0.00 68 1012.4
20260502030117 54 136 2.0 2.0 0.00 0.00 0.00 67 1012.5
20260502030029 54 147 1.0 2.0 0.00 0.00 0.00 67 1012.5
20260502025924 54 120 2.0 2.0 0.00 0.00 0.00 66 1012.3
20260502025820 54 135 2.0 2.0 0.00 0.00 0.00 67 1012.4
20260502025716 54 127 2.0 3.0 0.00 0.00 0.00 66 1012.3
20260502025647 54 129 1.0 2.0 0.00 0.00 0.00 66 1012.3
20260502025523 54 66 0.0 1.0 0.00 0.00 0.00 66 1012.3
20260502025438 54 152 1.0 1.0 0.00 0.00 0.00 66 1012.5
20260502025330 54 0.0 1.0 0.00 0.00 0.00 66 1012.4
20260502025226 54 0.0 1.0 0.00 0.00 0.00 66 1012.5
20260502025121 54 0.0 1.0 0.00 0.00 0.00 67 1012.5
20260502025037 54 157 1.0 2.0 0.00 0.00 0.00 66 1012.4
20260502024929 54 129 2.0 3.0 0.00 0.00 0.00 64 1012.5
20260502024824 54 110 2.0 4.0 0.00 0.00 0.00 65 1012.3
20260502024719 54 116 2.0 3.0 0.00 0.00 0.00 65 1012.4
20260502024615 54 138 2.0 2.0 0.00 0.00 0.00 66 1012.6
20260502024547 54 106 2.0 2.0 0.00 0.00 0.00 65 1012.2
20260502024443 54 124 2.0 2.0 0.00 0.00 0.00 66 1012.4
20260502024318 54 127 1.0 2.0 0.00 0.00 0.00 66 1012.5
20260502024250 54 138 1.0 2.0 0.00 0.00 0.00 66 1012.6
20260502024125 54 123 1.0 2.0 0.00 0.00 0.00 66 1012.4
20260502024021 54 107 1.0 2.0 0.00 0.00 0.00 66 1012.5
20260502023916 54 103 1.0 2.0 0.00 0.00 0.00 66 1012.5
20260502023828 54 118 1.0 2.0 0.00 0.00 0.00 66 1012.6
20260502023744 54 117 2.0 2.0 0.00 0.00 0.00 66 1012.7
20260502023639 54 119 1.0 2.0 0.00 0.00 0.00 66 1012.6
20260502023531 54 111 2.0 2.0 0.00 0.00 0.00 66 1012.7
20260502023447 54 130 1.0 2.0 0.00 0.00 0.00 67 1012.4
20260502023322 54 0.0 1.0 0.00 0.00 0.00 66 1012.6
20260502023218 54 120 0.0 1.0 0.00 0.00 0.00 67 1012.6
20260502023129 54 0.0 0.0 0.00 0.00 0.00 67 1012.6
20260502023025 54 0.0 0.0 0.00 0.00 0.00 66 1012.7
20260502022921 54 0.0 0.0 0.00 0.00 0.00 66 1012.6
20260502022816 54 0.0 1.0 0.00 0.00 0.00 66 1012.6
20260502022728 54 137 0.0 1.0 0.00 0.00 0.00 66 1012.6
20260502022623 54 132 1.0 2.0 0.00 0.00 0.00 66 1012.6
20260502022519 54 0.0 2.0 0.00 0.01 0.00 65 1012.6
20260502022431 54 140 1.0 2.0 0.00 0.01 0.00 65 1012.6
20260502022326 54 164 1.0 2.0 0.00 0.01 0.00 66 1012.6
20260502022222 54 179 0.0 1.0 0.00 0.01 0.00 66 1012.6
20260502022157 54 156 1.0 2.0 0.00 0.01 0.00 65 1012.4
20260502022029 54 123 1.0 2.0 0.00 0.01 0.00 66 1012.6
20260502021945 54 134 2.0 2.0 0.00 0.01 0.00 65 1012.6
20260502021820 54 121 2.0 2.0 0.00 0.01 0.00 65 1012.6
20260502021716 54 128 2.0 2.0 0.00 0.01 0.00 65 1012.5
20260502021627 54 112 1.0 2.0 0.00 0.01 0.00 65 1012.5
20260502021523 54 138 2.0 2.0 0.00 0.01 0.00 66 1012.4
20260502021439 54 0.0 2.0 0.00 0.01 0.00 66 1012.7
20260502021330 54 145 1.0 2.0 0.00 0.01 0.00 66 1012.7
20260502021246 54 146 1.0 2.0 0.00 0.01 0.00 66 1012.5
20260502021141 54 129 1.0 2.0 0.00 0.01 0.00 66 1012.4
20260502021017 54 152 2.0 3.0 0.00 0.01 0.00 66 1012.4
20260502020929 54 135 1.0 2.0 0.00 0.01 0.00 65 1012.4
20260502020824 54 116 1.0 2.0 0.00 0.01 0.00 66 1012.5
20260502020740 54 99 0.0 1.0 0.00 0.01 0.00 66 1012.4
20260502020635 54 87 0.0 1.0 0.00 0.01 0.00 65 1012.5
20260502020547 54 82 0.0 2.0 0.00 0.02 0.00 65 1012.4
20260502020422 53 53 1.0 2.0 0.00 0.02 0.00 65 1012.3
20260502020318 53 83 1.0 1.0 0.00 0.02 0.00 65 1012.4
20260502020250 53 0.0 1.0 0.00 0.02 0.00 65 1012.4
20260502020125 53 106 1.0 2.0 0.00 0.02 0.00 65 1012.3
20260502020020 53 129 1.0 2.0 0.00 0.02 0.00 65 1012.5
20260502015916 53 145 1.0 2.0 0.00 0.02 0.00 65 1012.4
20260502015827 53 0.0 1.0 0.00 0.02 0.00 66 1012.3
20260502015723 53 0.0 0.0 0.00 0.02 0.00 66 1012.6
20260502015639 53 0.0 0.0 0.00 0.02 0.00 66 1012.4
20260502015531 53 0.0 0.0 0.00 0.02 0.00 66 1012.4
20260502015426 53 0.0 1.0 0.00 0.02 0.00 65 1012.5
20260502015402 53 108 1.0 2.0 0.00 0.02 0.00 65 1012.4
20260502015217 53 114 1.0 2.0 0.00 0.02 0.00 65 1012.3
20260502015149 53 108 2.0 2.0 0.00 0.02 0.00 65 1012.4
20260502015024 53 102 1.0 2.0 0.00 0.02 0.00 65 1012.3
20260502014940 53 103 1.0 3.0 0.00 0.02 0.00 65 1012.3
20260502014816 53 118 1.0 2.0 0.00 0.02 0.00 65 1012.4
20260502014727 53 108 1.0 2.0 0.00 0.02 0.00 65 1012.3
20260502014623 53 0.0 1.0 0.00 0.02 0.00 64 1012.4
20260502014519 53 130 0.0 2.0 0.00 0.02 0.00 64 1012.3
20260502014430 53 120 1.0 1.0 0.00 0.03 0.00 64 1012.2
20260502014326 54 0.0 1.0 0.00 0.03 0.00 64 1012.5
20260502014241 54 146 0.0 1.0 0.00 0.03 0.00 64 1012.3
20260502014117 54 44 0.0 2.0 0.00 0.03 0.00 64 1012.5
20260502014028 54 0.0 1.0 0.00 0.03 0.00 64 1012.5
20260502013944 54 28 0.0 2.0 0.00 0.03 0.00 64 1012.5
20260502013820 54 0.0 0.0 0.00 0.03 0.00 64 1012.2
20260502013715 54 99 0.0 1.0 0.00 0.03 0.00 63 1012.1
20260502013627 54 96 1.0 2.0 0.00 0.03 0.00 63 1012.3
20260502013523 54 106 1.0 2.0 0.00 0.03 0.00 63 1012.1
20260502013418 54 97 1.0 2.0 0.00 0.03 0.00 63 1012.2
20260502013350 54 97 1.0 2.0 0.00 0.03 0.00 63 1012.4
20260502013225 54 116 1.0 2.0 0.00 0.03 0.00 63 1012.3
20260502013121 54 0.0 2.0 0.00 0.03 0.00 63 1012.3
20260502013017 54 51 1.0 1.0 0.00 0.03 0.00 62 1012.5
20260502012928 54 142 0.0 1.0 0.00 0.03 0.00 62 1012.3
20260502012824 54 339 0.0 1.0 0.00 0.03 0.00 62 1012.4
20260502012739 54 0.0 1.0 0.00 0.03 0.00 62 1012.4
20260502012631 54 3 0.0 1.0 0.00 0.03 0.00 62 1012.3
20260502012527 54 0.0 1.0 0.00 0.03 0.00 62 1012.3
20260502012422 54 0.0 1.0 0.00 0.03 0.00 62 1012.1
20260502012317 54 0.0 1.0 0.00 0.03 0.00 62 1012.2
20260502012229 54 0.0 0.0 0.00 0.03 0.00 62 1012.3
20260502012124 54 52 0.0 1.0 0.00 0.03 0.00 62 1012.1
20260502012020 54 154 0.0 1.0 0.00 0.03 0.00 62 1012.3
20260502011916 54 121 1.0 1.0 0.00 0.03 0.00 62 1012.2
20260502011827 54 0.0 0.0 0.00 0.03 0.00 62 1012.0
20260502011723 54 0.0 1.0 0.00 0.03 0.00 62 1012.0
20260502011619 54 0.0 0.0 0.00 0.03 0.00 62 1012.2
20260502011531 55 140 0.0 2.0 0.00 0.03 0.00 62 1012.1
20260502011426 55 152 0.0 1.0 0.00 0.03 0.00 62 1012.1
20260502011322 55 0.0 1.0 0.00 0.03 0.00 61 1011.9
20260502011237 55 162 0.0 2.0 0.00 0.03 0.00 60 1011.9
20260502011129 55 147 1.0 2.0 0.00 0.03 0.00 60 1011.8
20260502011025 55 146 1.0 2.0 0.00 0.03 0.00 61 1011.9
20260502010920 55 123 1.0 2.0 0.00 0.03 0.00 60 1011.8
20260502010816 55 138 1.0 2.0 0.00 0.03 0.00 60 1011.9
20260502010748 55 138 1.0 2.0 0.00 0.03 0.00 60 1011.8
20260502010623 55 118 1.0 2.0 0.00 0.03 0.00 60 1011.9
20260502010519 55 139 0.0 1.0 0.00 0.03 0.00 59 1011.9
20260502010431 55 154 1.0 2.0 0.00 0.03 0.00 60 1011.8
20260502010326 56 154 1.0 2.0 0.00 0.03 0.00 60 1011.8
20260502010222 56 149 1.0 2.0 0.00 0.03 0.00 59 1011.8
20260502010118 56 0.0 1.0 0.00 0.03 0.00 59 1012.0
20260502010029 56 149 1.0 2.0 0.00 0.03 0.00 59 1011.8
20260502005925 56 123 2.0 3.0 0.00 0.03 0.00 58 1011.9
20260502005820 56 117 1.0 2.0 0.00 0.03 0.00 58 1011.8
20260502005716 56 104 1.0 2.0 0.00 0.03 0.00 58 1011.9
20260502005627 56 0.0 1.0 0.00 0.03 0.00 59 1012.0
20260502005543 56 0.0 1.0 0.00 0.03 0.00 59 1012.0
20260502005439 56 139 0.0 1.0 0.00 0.03 0.00 58 1011.9
20260502005351 56 93 1.0 2.0 0.00 0.03 0.00 58 1011.8
20260502005226 56 215 0.0 1.0 0.00 0.03 0.00 58 1011.8
20260502005142 56 0.0 1.0 0.00 0.03 0.00 58 1011.9
20260502005017 56 0.0 0.0 0.00 0.03 0.00 58 1012.0
20260502004929 56 349 0.0 2.0 0.00 0.03 0.00 58 1011.8
20260502004824 56 126 1.0 2.0 0.00 0.03 0.00 58 1011.8
20260502004720 56 152 0.0 1.0 0.00 0.03 0.00 58 1012.0
20260502004616 56 0.0 1.0 0.00 0.03 0.00 58 1011.9
20260502004547 56 117 1.0 2.0 0.00 0.03 0.00 57 1011.9
20260502004423 56 158 0.0 1.0 0.00 0.03 0.00 57 1011.7
20260502004318 57 159 1.0 2.0 0.00 0.03 0.00 56 1011.7
20260502004230 57 169 1.0 2.0 0.00 0.03 0.00 56 1011.7
20260502004126 57 134 0.0 2.0 0.00 0.03 0.00 56 1011.9
20260502004022 57 176 0.0 2.0 0.00 0.03 0.00 56 1011.8
20260502003917 57 165 1.0 2.0 0.00 0.03 0.00 55 1011.8
20260502003829 57 155 0.0 1.0 0.00 0.03 0.00 56 1011.8
20260502003724 57 166 0.0 2.0 0.00 0.03 0.00 55 1011.7
20260502003620 57 130 0.0 1.0 0.00 0.03 0.00 55 1011.7
20260502003515 57 136 1.0 2.0 0.00 0.03 0.00 55 1011.6
20260502003427 57 132 2.0 2.0 0.00 0.03 0.00 55 1011.7
20260502003322 57 127 1.0 2.0 0.00 0.03 0.00 54 1011.7
20260502003238 57 80 2.0 2.0 0.00 0.03 0.00 54 1011.6
20260502003150 58 120 2.0 2.0 0.00 0.03 0.00 55 1011.7
20260502003025 58 124 1.0 2.0 0.00 0.03 0.00 54 1011.5
20260502002921 58 115 1.0 2.0 0.00 0.03 0.00 54 1011.7
20260502002817 58 125 1.0 2.0 0.00 0.03 0.00 55 1011.6
20260502002748 58 119 1.0 3.0 0.00 0.03 0.00 54 1011.7
20260502002624 58 114 1.0 2.0 0.00 0.03 0.00 54 1011.6
20260502002520 58 106 2.0 2.0 0.00 0.03 0.00 53 1011.6
20260502002415 58 112 2.0 2.0 0.00 0.03 0.00 54 1011.7
20260502002327 58 119 2.0 3.0 0.00 0.03 0.00 54 1011.6
20260502002223 58 106 1.0 2.0 0.00 0.03 0.00 54 1011.6
20260502002118 58 138 1.0 2.0 0.00 0.03 0.00 53 1011.7
20260502002030 58 154 0.0 2.0 0.00 0.03 0.00 53 1011.6
20260502001925 58 128 0.0 2.0 0.00 0.03 0.00 53 1011.7
20260502001821 58 0.0 1.0 0.00 0.03 0.00 53 1011.7
20260502001736 58 155 0.0 2.0 0.00 0.03 0.00 53 1011.6
20260502001628 59 149 1.0 2.0 0.00 0.03 0.00 52 1011.7
20260502001524 59 137 1.0 2.0 0.00 0.03 0.00 52 1011.6
20260502001439 59 128 2.0 2.0 0.00 0.03 0.00 52 1011.7
20260502001335 59 144 1.0 2.0 0.00 0.03 0.00 51 1011.7
20260502001227 59 123 0.0 2.0 0.00 0.03 0.00 51 1011.7
20260502001122 59 137 1.0 2.0 0.00 0.03 0.00 51 1011.5
20260502001018 59 177 2.0 2.0 0.00 0.03 0.00 50 1011.5
20260502000929 59 163 2.0 2.0 0.00 0.03 0.00 50 1011.6
20260502000825 59 137 1.0 2.0 0.00 0.03 0.00 50 1011.7
20260502000721 59 141 1.0 2.0 0.00 0.03 0.00 50 1011.5
20260502000616 59 149 1.0 2.0 0.00 0.03 0.00 49 1011.6
20260502000528 59 175 1.0 2.0 0.00 0.03 0.00 49 1011.6
20260502000424 59 156 0.0 2.0 0.00 0.03 0.00 49 1011.6
20260502000319 60 188 1.0 2.0 0.00 0.03 0.00 48 1011.5
20260502000230 60 0.0 1.0 0.00 0.03 0.00 48 1011.5
20260502000126 60 171 1.0 2.0 0.00 0.03 0.00 48 1011.5
20260502000022 60 106 1.0 2.0 0.00 0.03 0.00 48 1011.4
20260501235917 60 0.0 2.0 0.00 0.03 0.00 48 1011.7
20260501235829 60 123 1.0 2.0 0.00 0.03 0.00 48 1011.6
20260501235724 60 132 1.0 2.0 0.00 0.03 0.00 47 1011.6
20260501235620 60 129 2.0 2.0 0.00 0.03 0.00 47 1011.4
20260501235536 60 121 1.0 3.0 0.00 0.03 0.00 47 1011.3
20260501235427 60 128 2.0 3.0 0.00 0.03 0.00 48 1011.3
20260501235323 60 152 2.0 3.0 0.00 0.03 0.00 48 1011.3
20260501235219 61 164 1.0 3.0 0.00 0.03 0.00 48 1011.5
20260501235130 61 166 1.0 2.0 0.00 0.03 0.00 48 1011.4
20260501235026 61 131 1.0 2.0 0.00 0.03 0.00 47 1011.3
20260501234921 61 122 0.0 2.0 0.00 0.03 0.00 46 1011.2
20260501234817 61 126 1.0 2.0 0.00 0.03 0.00 46 1011.1
20260501234748 61 117 2.0 3.0 0.00 0.03 0.00 47 1011.3
20260501234624 61 149 1.0 2.0 0.00 0.03 0.00 47 1011.3
20260501234520 61 139 1.0 2.0 0.00 0.03 0.00 46 1011.1
20260501234435 61 126 2.0 2.0 0.00 0.03 0.00 46 1011.3
20260501234327 61 117 1.0 2.0 0.00 0.03 0.00 46 1011.1
20260501234243 61 138 2.0 3.0 0.00 0.03 0.00 46 1011.1
20260501234118 61 121 2.0 3.0 0.00 0.03 0.00 46 1011.3
20260501234050 61 136 2.0 2.0 0.00 0.03 0.00 47 1011.2
20260501233925 62 124 2.0 3.0 0.00 0.03 0.00 46 1011.1
20260501233821 62 102 1.0 2.0 0.00 0.03 0.00 45 1011.2
20260501233716 62 165 1.0 2.0 0.00 0.03 0.00 44 1011.3
20260501233628 62 171 1.0 2.0 0.00 0.03 0.00 43 1011.2
20260501233544 62 159 1.0 2.0 0.00 0.03 0.00 42 1011.4
20260501233439 62 209 2.0 3.0 0.00 0.03 0.00 43 1011.0
20260501233315 62 190 2.0 5.0 0.00 0.03 0.00 42 1011.1
20260501233226 62 146 0.0 1.0 0.00 0.03 0.00 43 1011.1
20260501233122 62 188 1.0 2.0 0.00 0.03 0.00 43 1011.2
20260501233018 62 0.0 1.0 0.00 0.03 0.00 44 1011.2
20260501232930 62 176 1.0 2.0 0.00 0.03 0.00 44 1011.2
20260501232825 62 135 1.0 3.0 0.00 0.03 0.00 46 1011.0
20260501232721 62 139 1.0 2.0 0.00 0.03 0.00 43 1011.0
20260501232616 62 208 1.0 2.0 0.00 0.03 0.00 43 1011.0
20260501232528 62 0.0 1.0 0.00 0.03 0.00 43 1011.0
20260501232424 62 180 1.0 2.0 0.00 0.03 0.00 42 1011.0
20260501232319 62 205 1.0 3.0 0.00 0.03 0.00 41 1011.0
20260501232231 62 203 3.0 4.0 0.00 0.03 0.00 41 1010.9
20260501232127 62 197 3.0 5.0 0.00 0.03 0.00 42 1011.1
20260501232022 62 189 2.0 5.0 0.00 0.03 0.00 43 1010.9
20260501231918 62 120 2.0 4.0 0.00 0.03 0.00 42 1011.0
20260501231849 62 202 3.0 5.0 0.00 0.03 0.00 42 1011.0
20260501231725 62 215 1.0 3.0 0.00 0.03 0.00 43 1011.1
20260501231621 62 184 1.0 3.0 0.00 0.03 0.00 44 1010.9
20260501231536 62 169 2.0 3.0 0.00 0.03 0.00 43 1011.1
20260501231428 62 187 1.0 1.0 0.00 0.03 0.00 43 1011.2
20260501231323 62 180 0.0 1.0 0.00 0.03 0.00 43 1011.0
20260501231239 62 208 0.0 2.0 0.00 0.03 0.00 43 1011.0
20260501231131 62 194 1.0 2.0 0.00 0.03 0.00 42 1011.1
20260501231026 62 201 1.0 2.0 0.00 0.03 0.00 43 1011.1
20260501230922 62 158 1.0 2.0 0.00 0.03 0.00 44 1011.0
20260501230817 62 201 1.0 3.0 0.00 0.03 0.00 42 1010.9
20260501230729 62 192 2.0 3.0 0.00 0.03 0.00 42 1011.2
20260501230625 62 198 1.0 2.0 0.00 0.03 0.00 42 1011.0
20260501230520 62 209 1.0 8.0 0.00 0.03 0.00 42 1011.0
20260501230416 62 189 6.0 9.0 0.00 0.03 0.00 41 1010.9
20260501230327 62 190 3.0 4.0 0.00 0.03 0.00 42 1011.0
20260501230243 62 206 3.0 6.0 0.00 0.03 0.00 41 1011.0
20260501230119 62 175 2.0 4.0 0.00 0.03 0.00 41 1011.0
20260501230030 62 185 3.0 4.0 0.00 0.03 0.00 42 1010.9
20260501225926 62 181 1.0 3.0 0.00 0.03 0.00 41 1010.9
20260501225821 62 191 3.0 4.0 0.00 0.03 0.00 41 1010.9
20260501225717 62 198 2.0 3.0 0.00 0.03 0.00 41 1011.0
20260501225629 63 187 3.0 4.0 0.00 0.03 0.00 42 1011.0
20260501225524 63 214 1.0 3.0 0.00 0.03 0.00 42 1010.9
20260501225420 63 202 1.0 3.0 0.00 0.03 0.00 41 1011.0
20260501225315 63 197 2.0 5.0 0.00 0.03 0.00 41 1010.9
20260501225227 63 189 3.0 5.0 0.00 0.03 0.00 42 1010.8
20260501225143 63 198 1.0 3.0 0.00 0.03 0.00 42 1011.0
20260501225018 63 179 2.0 3.0 0.00 0.03 0.00 41 1011.0
20260501224930 63 228 1.0 3.0 0.00 0.03 0.00 42 1011.0
20260501224825 63 219 1.0 3.0 0.00 0.03 0.00 41 1010.9
20260501224721 63 0.0 1.0 0.00 0.03 0.00 41 1010.9
20260501224616 63 94 0.0 2.0 0.00 0.03 0.00 41 1011.0
20260501224528 63 195 2.0 4.0 0.00 0.03 0.00 42 1010.9
20260501224423 63 206 3.0 4.0 0.00 0.03 0.00 42 1010.9
20260501224339 63 170 2.0 2.0 0.00 0.03 0.00 41 1010.8
20260501224231 63 196 2.0 4.0 0.00 0.03 0.00 42 1011.0
20260501224127 63 198 4.0 5.0 0.00 0.03 0.00 42 1011.0
20260501224022 63 218 3.0 5.0 0.00 0.03 0.00 41 1010.9
20260501223918 64 215 2.0 5.0 0.00 0.03 0.00 41 1010.9
20260501223829 64 199 4.0 6.0 0.00 0.03 0.00 40 1010.8
20260501223725 64 193 4.0 6.0 0.00 0.03 0.00 41 1011.0
20260501223701 64 197 3.0 5.0 0.00 0.03 0.00 41 1010.9
20260501223516 64 220 2.0 3.0 0.00 0.03 0.00 41 1010.8
20260501223428 64 221 3.0 6.0 0.00 0.03 0.00 41 1010.7
20260501223323 64 191 3.0 5.0 0.00 0.03 0.00 41 1010.7
20260501223219 64 105 4.0 5.0 0.00 0.03 0.00 41 1010.7
20260501223151 64 183 1.0 3.0 0.00 0.03 0.00 42 1010.6
20260501223026 64 256 1.0 2.0 0.00 0.03 0.00 41 1010.7
20260501222921 64 185 2.0 5.0 0.00 0.03 0.00 40 1010.8
20260501222817 64 186 4.0 5.0 0.00 0.03 0.00 40 1010.8
20260501222729 64 187 4.0 6.0 0.00 0.03 0.00 40 1010.7
20260501222625 64 206 3.0 6.0 0.00 0.03 0.00 42 1010.9
20260501222520 64 339 3.0 3.0 0.00 0.03 0.00 41 1011.0
20260501222416 64 209 2.0 5.0 0.00 0.03 0.00 42 1010.9
20260501222327 64 213 1.0 4.0 0.00 0.03 0.00 41 1010.9
20260501222223 64 209 3.0 4.0 0.00 0.03 0.00 42 1011.0
20260501222119 63 216 3.0 4.0 0.00 0.03 0.00 42 1011.0
20260501222030 63 250 1.0 5.0 0.00 0.03 0.00 41 1011.0
20260501221926 64 221 2.0 5.0 0.00 0.03 0.00 40 1010.9
20260501221821 63 182 3.0 4.0 0.00 0.03 0.00 41 1011.0
20260501221717 63 189 3.0 4.0 0.00 0.03 0.00 41 1010.9
20260501221629 63 185 3.0 6.0 0.00 0.03 0.00 41 1010.9
20260501221524 63 185 2.0 4.0 0.00 0.03 0.00 41 1011.1
20260501221420 63 253 2.0 2.0 0.00 0.03 0.00 41 1011.1
20260501221315 63 170 1.0 3.0 0.00 0.03 0.00 42 1010.9
20260501221227 64 184 2.0 3.0 0.00 0.03 0.00 42 1010.9
20260501221123 63 207 2.0 4.0 0.00 0.03 0.00 41 1011.0
20260501221018 63 192 1.0 2.0 0.00 0.03 0.00 42 1011.0
20260501220930 63 189 2.0 4.0 0.00 0.03 0.00 42 1011.1
20260501220826 63 230 2.0 4.0 0.00 0.03 0.00 41 1011.0
20260501220721 64 201 4.0 6.0 0.00 0.03 0.00 41 1011.0
20260501220617 64 199 5.0 8.0 0.00 0.03 0.00 41 1011.0
20260501220528 64 203 5.0 6.0 0.00 0.03 0.00 41 1011.1
20260501220520 63 195 4.0 6.0 0.00 0.03 0.00 42 1011.2
20260501220500 63 214 4.0 6.0 0.00 0.03 0.00 42 1011.0
20260501220215 63 210 1.0 3.0 0.00 0.03 0.00 42 1011.1
20260501220127 63 215 4.0 6.0 0.00 0.03 0.00 43 1011.0
20260501220023 63 204 2.0 3.0 0.00 0.03 0.00 43 1011.1
20260501215918 63 132 1.0 3.0 0.00 0.03 0.00 43 1011.1
20260501215850 63 279 1.0 3.0 0.00 0.03 0.00 43 1011.0
20260501215725 63 273 1.0 1.0 0.00 0.03 0.00 42 1011.0
20260501215621 63 242 1.0 2.0 0.00 0.03 0.00 41 1011.0
20260501215537 63 304 1.0 2.0 0.00 0.03 0.00 42 1011.0
20260501215448 63 235 0.0 2.0 0.00 0.03 0.00 43 1011.2
20260501215324 63 131 1.0 2.0 0.00 0.03 0.00 44 1011.1
20260501215239 63 98 1.0 2.0 0.00 0.03 0.00 43 1010.9
20260501215115 63 157 1.0 2.0 0.00 0.03 0.00 43 1010.9
20260501215047 63 201 3.0 4.0 0.00 0.03 0.00 42 1011.1
20260501214922 63 201 3.0 6.0 0.00 0.03 0.00 42 1011.2
20260501214818 63 198 5.0 6.0 0.00 0.03 0.00 44 1011.1
20260501214729 63 200 0.0 3.0 0.00 0.03 0.00 43 1011.2
20260501214625 63 178 1.0 2.0 0.00 0.03 0.00 42 1011.2
20260501214521 63 231 2.0 4.0 0.00 0.03 0.00 43 1011.1
20260501214416 63 200 2.0 4.0 0.00 0.03 0.00 42 1011.2
20260501214328 63 196 3.0 4.0 0.00 0.03 0.00 42 1011.2
20260501214243 63 213 2.0 9.0 0.00 0.03 0.00 42 1011.2
20260501214119 63 26 1.0 2.0 0.00 0.03 0.00 43 1011.4
20260501214031 63 191 2.0 4.0 0.00 0.03 0.00 43 1011.3
20260501213926 63 208 3.0 5.0 0.00 0.03 0.00 43 1011.0
20260501213822 63 210 2.0 5.0 0.00 0.03 0.00 43 1011.0
20260501213717 63 193 4.0 6.0 0.00 0.03 0.00 42 1011.3
20260501213629 63 177 1.0 2.0 0.00 0.03 0.00 43 1011.3
20260501213545 63 29 1.0 2.0 0.00 0.03 0.00 42 1011.2
20260501213420 63 169 1.0 2.0 0.00 0.03 0.00 42 1011.1
20260501213316 63 220 2.0 3.0 0.00 0.03 0.00 42 1011.2
20260501213228 64 193 4.0 7.0 0.00 0.03 0.00 41 1011.4
20260501213123 64 122 3.0 4.0 0.00 0.03 0.00 42 1011.0
20260501213018 64 231 1.0 3.0 0.00 0.03 0.00 42 1011.1
20260501212930 64 316 1.0 4.0 0.00 0.03 0.00 42 1011.0
20260501212826 64 255 2.0 4.0 0.00 0.03 0.00 42 1011.3
20260501212721 64 203 3.0 5.0 0.00 0.03 0.00 42 1011.1
20260501212617 64 189 3.0 7.0 0.00 0.03 0.00 42 1011.1
20260501212529 64 184 2.0 4.0 0.00 0.03 0.00 43 1011.0
20260501212424 64 195 2.0 4.0 0.00 0.03 0.00 42 1011.0
20260501212340 64 282 2.0 3.0 0.00 0.03 0.00 42 1011.2
20260501212216 64 231 3.0 7.0 0.00 0.03 0.00 41 1011.1
20260501212127 64 199 6.0 9.0 0.00 0.03 0.00 42 1011.1
20260501212022 64 177 2.0 4.0 0.00 0.03 0.00 43 1011.1
20260501211918 64 358 3.0 5.0 0.00 0.03 0.00 43 1011.0
20260501211830 63 193 4.0 6.0 0.00 0.03 0.00 42 1011.1
20260501211745 63 196 5.0 6.0 0.00 0.03 0.00 42 1011.2
20260501211621 63 199 4.0 5.0 0.00 0.03 0.00 42 1011.3
20260501211516 63 200 3.0 4.0 0.00 0.03 0.00 42 1011.1
20260501211428 63 209 3.0 5.0 0.00 0.03 0.00 41 1011.1
20260501211323 64 189 4.0 5.0 0.00 0.03 0.00 42 1011.0
20260501211219 64 193 4.0 9.0 0.00 0.03 0.00 42 1011.3
20260501211131 64 193 4.0 9.0 0.00 0.03 0.00 42 1011.0
20260501211026 64 218 2.0 3.0 0.00 0.03 0.00 42 1011.0
20260501210922 64 213 4.0 7.0 0.00 0.03 0.00 42 1011.3
20260501210817 64 179 3.0 7.0 0.00 0.03 0.00 42 1011.1
20260501210729 64 200 4.0 7.0 0.00 0.03 0.00 41 1011.2
20260501210624 64 211 3.0 4.0 0.00 0.03 0.00 41 1011.1
20260501210520 64 222 2.0 2.0 0.00 0.03 0.00 41 1011.2
20260501210416 64 187 4.0 6.0 0.00 0.03 0.00 39 1011.1
20260501210327 64 215 4.0 6.0 0.00 0.03 0.00 40 1011.1
20260501210223 64 206 4.0 7.0 0.00 0.03 0.00 41 1011.1
20260501210119 64 197 4.0 5.0 0.00 0.03 0.00 41 1011.0
20260501210030 64 200 3.0 4.0 0.00 0.03 0.00 42 1011.0
20260501205926 64 214 3.0 5.0 0.00 0.03 0.00 41 1010.9
20260501205821 64 200 2.0 3.0 0.00 0.03 0.00 43 1011.0
20260501205737 64 196 2.0 4.0 0.00 0.03 0.00 43 1010.9
20260501205629 64 199 4.0 5.0 0.00 0.03 0.00 42 1011.1
20260501205524 64 203 5.0 7.0 0.00 0.03 0.00 42 1010.9
20260501205420 64 207 6.0 9.0 0.00 0.03 0.00 41 1011.0
20260501205315 64 206 4.0 5.0 0.00 0.03 0.00 42 1010.9
20260501205227 64 207 6.0 9.0 0.00 0.03 0.00 42 1011.0
20260501205123 64 197 5.0 6.0 0.00 0.03 0.00 42 1010.8
20260501205018 64 197 5.0 9.0 0.00 0.03 0.00 40 1010.9
20260501204930 65 195 6.0 9.0 0.00 0.03 0.00 40 1010.9
20260501204846 64 211 5.0 7.0 0.00 0.03 0.00 42 1010.9
20260501204721 64 93 3.0 6.0 0.00 0.03 0.00 41 1010.7
20260501204617 64 199 3.0 9.0 0.00 0.03 0.00 41 1010.9
20260501204528 64 298 1.0 3.0 0.00 0.03 0.00 40 1010.8
20260501204424 64 159 2.0 6.0 0.00 0.03 0.00 39 1011.0
20260501204319 65 217 4.0 6.0 0.00 0.03 0.00 41 1011.0
20260501204215 65 204 3.0 5.0 0.00 0.03 0.00 41 1011.1
20260501204127 64 209 2.0 4.0 0.00 0.03 0.00 43 1011.0
20260501204022 64 181 2.0 2.0 0.00 0.03 0.00 42 1010.9
20260501203918 64 152 3.0 6.0 0.00 0.03 0.00 40 1011.0
20260501203849 65 192 4.0 6.0 0.00 0.03 0.00 40 1011.1
20260501203725 65 190 4.0 6.0 0.00 0.03 0.00 41 1010.9
20260501203620 64 185 4.0 6.0 0.00 0.03 0.00 42 1011.0
20260501203536 64 196 4.0 7.0 0.00 0.03 0.00 41 1011.2
20260501203428 64 199 5.0 7.0 0.00 0.03 0.00 42 1011.0
20260501203343 65 200 6.0 9.0 0.00 0.03 0.00 41 1011.2
20260501203219 65 194 7.0 10.0 0.00 0.03 0.00 41 1011.0
20260501203130 66 204 6.0 8.0 0.00 0.03 0.00 41 1011.1
20260501203026 66 193 3.0 6.0 0.00 0.03 0.00 41 1011.0
20260501202942 66 213 1.0 3.0 0.00 0.03 0.00 42 1011.0
20260501202837 65 203 2.0 4.0 0.00 0.03 0.00 40 1011.0
20260501202729 65 208 2.0 3.0 0.00 0.03 0.00 40 1010.9
20260501202624 65 261 3.0 4.0 0.00 0.03 0.00 41 1011.1
20260501202540 65 172 3.0 4.0 0.00 0.03 0.00 40 1011.1
20260501202416 65 208 4.0 9.0 0.00 0.03 0.00 40 1011.2
20260501202328 65 197 5.0 9.0 0.00 0.03 0.00 40 1011.3
20260501202243 65 200 4.0 6.0 0.00 0.03 0.00 41 1011.3
20260501202118 65 169 5.0 8.0 0.00 0.03 0.00 41 1011.0
20260501202030 65 187 3.0 8.0 0.00 0.03 0.00 41 1011.2
20260501201946 65 197 3.0 8.0 0.00 0.03 0.00 41 1011.3
20260501201841 65 206 3.0 6.0 0.00 0.03 0.00 43 1011.1
20260501201717 65 198 3.0 5.0 0.00 0.03 0.00 41 1011.1
20260501201629 65 201 5.0 7.0 0.00 0.03 0.00 43 1011.2
20260501201524 65 198 6.0 9.0 0.00 0.03 0.00 43 1011.1
20260501201420 65 176 3.0 6.0 0.00 0.03 0.00 43 1011.2
20260501201316 65 268 3.0 5.0 0.00 0.03 0.00 42 1011.1
20260501201227 64 197 3.0 4.0 0.00 0.03 0.00 44 1011.1
20260501201143 64 232 3.0 6.0 0.00 0.03 0.00 43 1011.2
20260501201018 65 89 4.0 7.0 0.00 0.03 0.00 41 1011.1
20260501200930 65 56 3.0 11.0 0.00 0.03 0.00 41 1011.3
20260501200825 65 156 1.0 3.0 0.00 0.03 0.00 40 1011.1
20260501200721 65 192 2.0 4.0 0.00 0.03 0.00 39 1011.1
20260501200637 65 204 3.0 4.0 0.00 0.03 0.00 41 1011.3
20260501200528 65 306 2.0 4.0 0.00 0.03 0.00 40 1011.3
20260501200424 65 186 2.0 3.0 0.00 0.03 0.00 42 1011.4
20260501200320 65 64 2.0 5.0 0.00 0.03 0.00 40 1011.4
20260501200215 65 345 3.0 6.0 0.00 0.03 0.00 41 1011.4
20260501200127 66 327 3.0 6.0 0.00 0.03 0.00 40 1011.2
20260501200042 65 179 3.0 4.0 0.00 0.03 0.00 41 1011.2
20260501195918 65 220 2.0 6.0 0.00 0.03 0.00 42 1011.1
20260501195830 65 228 2.0 3.0 0.00 0.03 0.00 41 1011.3
20260501195725 65 188 2.0 6.0 0.00 0.03 0.00 40 1011.3
20260501195621 65 207 5.0 8.0 0.00 0.03 0.00 39 1011.4
20260501195516 65 204 4.0 7.0 0.00 0.03 0.00 41 1011.5
20260501195448 65 193 3.0 5.0 0.00 0.03 0.00 42 1011.5
20260501195323 65 211 3.0 5.0 0.00 0.03 0.00 42 1011.4
20260501195219 65 190 2.0 3.0 0.00 0.03 0.00 42 1011.3
20260501195131 65 197 2.0 3.0 0.00 0.03 0.00 41 1011.4
20260501195026 64 357 2.0 3.0 0.00 0.03 0.00 42 1011.3
20260501194922 65 61 3.0 4.0 0.00 0.03 0.00 40 1011.5
20260501194817 65 178 3.0 4.0 0.00 0.03 0.00 41 1011.5
20260501194729 65 214 5.0 8.0 0.00 0.03 0.00 41 1011.5
20260501194625 66 210 4.0 6.0 0.00 0.03 0.00 41 1011.3
20260501194520 66 244 3.0 5.0 0.00 0.03 0.00 42 1011.6
20260501194416 65 201 4.0 7.0 0.00 0.03 0.00 42 1011.5
20260501194328 65 195 2.0 3.0 0.00 0.03 0.00 45 1011.4
20260501194223 64 200 2.0 4.0 0.00 0.03 0.00 45 1011.6
20260501194119 64 223 3.0 4.0 0.00 0.03 0.00 44 1011.5
20260501194030 65 191 5.0 8.0 0.00 0.03 0.00 42 1011.4
20260501193926 65 221 3.0 5.0 0.00 0.03 0.00 42 1011.4
20260501193821 64 214 2.0 6.0 0.00 0.03 0.00 41 1011.5
20260501193717 64 160 2.0 3.0 0.00 0.03 0.00 45 1011.5
20260501193629 64 196 2.0 5.0 0.00 0.03 0.00 42 1011.5
20260501193524 65 186 6.0 9.0 0.00 0.03 0.00 41 1011.3
20260501193420 65 190 5.0 8.0 0.00 0.03 0.00 42 1011.6
20260501193315 65 186 3.0 10.0 0.00 0.03 0.00 42 1011.5
20260501193227 65 201 6.0 10.0 0.00 0.03 0.00 42 1011.4
20260501193123 65 230 3.0 5.0 0.00 0.03 0.00 44 1011.4
20260501193018 65 203 6.0 9.0 0.00 0.03 0.00 43 1011.5
20260501192930 65 213 4.0 6.0 0.00 0.03 0.00 45 1011.4
20260501192825 64 215 3.0 7.0 0.00 0.03 0.00 45 1011.3
20260501192721 64 220 5.0 9.0 0.00 0.03 0.00 44 1011.2
20260501192636 64 236 3.0 6.0 0.00 0.03 0.00 43 1011.4
20260501192528 64 213 3.0 7.0 0.00 0.03 0.00 43 1011.4
20260501192443 64 193 4.0 7.0 0.00 0.03 0.00 44 1011.5
20260501192339 64 97 4.0 4.0 0.00 0.03 0.00 44 1011.5
20260501192230 64 198 3.0 5.0 0.00 0.03 0.00 43 1011.5
20260501192126 64 170 2.0 4.0 0.00 0.03 0.00 44 1011.7
20260501192021 64 197 1.0 3.0 0.00 0.03 0.00 46 1011.5
20260501191957 64 217 2.0 4.0 0.00 0.03 0.00 43 1011.7
20260501191829 64 196 3.0 4.0 0.00 0.03 0.00 44 1011.6
20260501191724 64 191 4.0 4.0 0.00 0.03 0.00 42 1011.6
20260501191639 65 189 5.0 9.0 0.00 0.03 0.00 42 1011.9
20260501191531 64 189 4.0 9.0 0.00 0.03 0.00 43 1011.7
20260501191426 65 143 3.0 4.0 0.00 0.03 0.00 42 1011.6
20260501191322 65 193 3.0 5.0 0.00 0.03 0.00 42 1011.7
20260501191217 64 143 2.0 3.0 0.00 0.03 0.00 46 1011.6
20260501191129 64 7 2.0 2.0 0.00 0.03 0.00 45 1011.6
20260501191024 64 359 1.0 2.0 0.00 0.03 0.00 42 1011.8
20260501190919 64 342 2.0 3.0 0.00 0.03 0.00 42 1011.8
20260501190830 65 351 2.0 4.0 0.00 0.03 0.00 41 1011.7
20260501190726 65 56 1.0 3.0 0.00 0.03 0.00 41 1011.8
20260501190621 65 143 2.0 3.0 0.00 0.03 0.00 40 1011.9
20260501190517 65 222 1.0 2.0 0.00 0.03 0.00 40 1011.7
20260501190429 64 207 3.0 8.0 0.00 0.03 0.00 43 1012.0
20260501190324 65 207 5.0 8.0 0.00 0.03 0.00 40 1011.8
20260501190220 65 199 3.0 5.0 0.00 0.03 0.00 40 1011.6
20260501190116 65 216 3.0 4.0 0.00 0.03 0.00 43 1011.9
20260501190027 65 277 2.0 4.0 0.00 0.03 0.00 43 1012.0
20260501185923 65 190 4.0 6.0 0.00 0.03 0.00 42 1011.7
20260501185818 65 186 4.0 6.0 0.00 0.03 0.00 41 1011.8
20260501185730 65 192 3.0 6.0 0.00 0.03 0.00 41 1011.8
20260501185705 65 247 2.0 4.0 0.00 0.03 0.00 43 1011.8
20260501185521 65 278 3.0 4.0 0.00 0.03 0.00 44 1011.8
20260501185417 64 271 3.0 6.0 0.00 0.03 0.00 42 1011.8
20260501185329 64 192 3.0 6.0 0.00 0.03 0.00 42 1011.8
20260501185244 64 217 1.0 2.0 0.00 0.03 0.00 43 1011.8
20260501185140 64 241 2.0 4.0 0.00 0.03 0.00 44 1011.8
20260501185015 63 198 3.0 4.0 0.00 0.03 0.00 42 1012.0
20260501184947 63 152 2.0 4.0 0.00 0.03 0.00 41 1011.8
20260501184823 63 190 3.0 6.0 0.00 0.03 0.00 43 1012.0
20260501184718 63 201 3.0 5.0 0.00 0.03 0.00 44 1011.9
20260501184630 63 217 4.0 7.0 0.00 0.03 0.00 44 1011.9
20260501184526 64 198 7.0 9.0 0.00 0.03 0.00 42 1011.9
20260501184421 63 247 2.0 3.0 0.00 0.03 0.00 43 1012.0
20260501184317 63 164 2.0 3.0 0.00 0.03 0.00 43 1012.0
20260501184228 63 160 3.0 5.0 0.00 0.03 0.00 42 1012.0
20260501184124 63 212 5.0 8.0 0.00 0.03 0.00 42 1012.0
20260501184019 64 185 5.0 7.0 0.00 0.03 0.00 41 1012.1
20260501183915 63 198 3.0 5.0 0.00 0.03 0.00 45 1012.0
20260501183827 63 339 3.0 6.0 0.00 0.03 0.00 43 1012.1
20260501183742 63 318 3.0 5.0 0.00 0.03 0.00 44 1011.9
20260501183618 63 308 4.0 6.0 0.00 0.03 0.00 43 1012.1
20260501183530 64 327 7.0 12.0 0.00 0.03 0.00 42 1012.1
20260501183445 64 241 3.0 5.0 0.00 0.03 0.00 44 1011.8
20260501183320 64 214 3.0 4.0 0.00 0.03 0.00 45 1012.1
20260501183216 64 201 4.0 7.0 0.00 0.03 0.00 44 1012.1
20260501183128 65 192 4.0 6.0 0.00 0.03 0.00 43 1012.2
20260501183023 65 222 3.0 4.0 0.00 0.03 0.00 43 1012.2
20260501182919 65 212 2.0 5.0 0.00 0.03 0.00 45 1012.1
20260501182830 64 130 1.0 3.0 0.00 0.03 0.00 45 1012.1
20260501182726 64 155 1.0 3.0 0.00 0.03 0.00 45 1012.0
20260501182622 64 158 3.0 4.0 0.00 0.03 0.00 44 1012.2
20260501182517 64 199 3.0 6.0 0.00 0.03 0.00 44 1012.1
20260501182429 64 202 2.0 4.0 0.00 0.03 0.00 43 1012.3
20260501182325 64 16 1.0 3.0 0.00 0.03 0.00 43 1012.3
20260501182220 64 197 3.0 4.0 0.00 0.03 0.00 44 1012.5
20260501182116 64 217 5.0 9.0 0.00 0.03 0.00 44 1012.5
20260501182027 63 225 3.0 5.0 0.00 0.03 0.00 46 1012.4
20260501181923 64 181 4.0 8.0 0.00 0.03 0.00 42 1012.4
20260501181838 64 194 3.0 6.0 0.00 0.03 0.00 45 1012.5
20260501181730 64 292 3.0 6.0 0.00 0.03 0.00 44 1012.4
20260501181626 63 333 2.0 4.0 0.00 0.03 0.00 46 1012.3
20260501181541 63 311 2.0 4.0 0.00 0.03 0.00 46 1012.5
20260501181417 63 192 3.0 6.0 0.00 0.03 0.00 45 1012.4
20260501181349 63 203 5.0 6.0 0.00 0.03 0.00 45 1012.2
20260501181224 63 182 2.0 5.0 0.00 0.03 0.00 47 1012.4
20260501181120 63 206 5.0 6.0 0.00 0.03 0.00 45 1012.2
20260501181015 63 204 2.0 6.0 0.00 0.03 0.00 47 1012.2
20260501180927 63 195 4.0 6.0 0.00 0.03 0.00 44 1012.3
20260501180823 63 201 5.0 10.0 0.00 0.03 0.00 45 1012.3
20260501180718 64 192 4.0 11.0 0.00 0.03 0.00 45 1012.3
20260501180649 63 236 5.0 8.0 0.00 0.03 0.00 46 1012.3
20260501180524 63 231 2.0 4.0 0.00 0.03 0.00 46 1012.2
20260501180420 63 208 2.0 6.0 0.00 0.03 0.00 45 1012.3
20260501180315 63 245 2.0 5.0 0.00 0.03 0.00 46 1012.4
20260501180227 62 12 3.0 4.0 0.00 0.03 0.00 44 1012.2
20260501180142 62 167 2.0 3.0 0.00 0.03 0.00 43 1012.3
20260501180049 62 184 4.0 5.0 0.00 0.03 0.00 43 1012.3
20260501180029 63 200 4.0 6.0 0.00 0.03 0.00 47 1012.1
20260501175824 63 207 5.0 6.0 0.00 0.03 0.00 46 1012.1
20260501175720 62 206 5.0 8.0 0.00 0.03 0.00 48 1012.3
20260501175615 62 201 5.0 9.0 0.00 0.03 0.00 47 1012.4
20260501175526 62 228 3.0 8.0 0.00 0.03 0.00 46 1012.5
20260501175441 62 205 4.0 7.0 0.00 0.03 0.00 46 1012.3
20260501175317 62 189 6.0 11.0 0.00 0.03 0.00 47 1012.4
20260501175248 62 203 2.0 4.0 0.00 0.03 0.00 46 1012.4
20260501175144 63 200 6.0 10.0 0.00 0.03 0.00 45 1012.4
20260501175019 63 187 5.0 9.0 0.00 0.03 0.00 44 1012.5
20260501174931 63 260 3.0 4.0 0.00 0.03 0.00 45 1012.4
20260501174826 63 193 3.0 5.0 0.00 0.03 0.00 46 1012.4
20260501174721 63 197 3.0 4.0 0.00 0.03 0.00 47 1012.3
20260501174617 62 216 3.0 5.0 0.00 0.03 0.00 48 1012.4
20260501174529 62 201 4.0 6.0 0.00 0.03 0.00 48 1012.2
20260501174424 62 196 6.0 10.0 0.00 0.03 0.00 46 1012.4
20260501174339 62 162 3.0 5.0 0.00 0.03 0.00 47 1012.3
20260501174215 62 207 4.0 9.0 0.00 0.03 0.00 45 1012.2
20260501174127 62 203 6.0 9.0 0.00 0.03 0.00 44 1012.4
20260501174042 63 196 5.0 8.0 0.00 0.03 0.00 45 1012.4
20260501173918 63 203 6.0 10.0 0.00 0.03 0.00 46 1012.4
20260501173830 63 204 4.0 5.0 0.00 0.03 0.00 46 1012.4
20260501173725 63 260 1.0 3.0 0.00 0.03 0.00 47 1012.4
20260501173621 62 198 3.0 5.0 0.00 0.03 0.00 47 1012.2
20260501173516 62 257 3.0 5.0 0.00 0.03 0.00 47 1012.4
20260501173428 62 189 5.0 6.0 0.00 0.03 0.00 47 1012.2
20260501173323 62 237 3.0 6.0 0.00 0.03 0.00 47 1012.2
20260501173218 62 191 4.0 6.0 0.00 0.03 0.00 45 1012.3
20260501173129 62 197 3.0 6.0 0.00 0.03 0.00 46 1012.2
20260501173025 62 214 4.0 8.0 0.00 0.03 0.00 48 1012.3
20260501172920 62 191 2.0 5.0 0.00 0.03 0.00 44 1012.4
20260501172831 62 196 4.0 7.0 0.00 0.03 0.00 47 1012.6
20260501172726 62 197 4.0 6.0 0.00 0.03 0.00 48 1012.4
20260501172641 62 276 2.0 4.0 0.00 0.03 0.00 45 1012.4
20260501172517 62 215 3.0 8.0 0.00 0.03 0.00 48 1012.5
20260501172508 62 190 4.0 8.0 0.00 0.03 0.00 48 1012.4
20260501172343 62 193 3.0 7.0 0.00 0.03 0.00 47 1012.3
20260501172237 62 199 4.0 5.0 0.00 0.03 0.00 46 1012.4
20260501172129 62 283 2.0 4.0 0.00 0.03 0.00 46 1012.5
20260501172043 62 191 3.0 5.0 0.00 0.03 0.00 44 1012.3
20260501171917 62 191 3.0 4.0 0.00 0.03 0.00 45 1012.5
20260501171827 61 186 3.0 4.0 0.00 0.03 0.00 46 1012.4
20260501171722 61 186 2.0 5.0 0.00 0.03 0.00 44 1012.5
20260501171616 62 187 3.0 5.0 0.00 0.03 0.00 42 1012.4
20260501171527 63 177 4.0 6.0 0.00 0.03 0.00 41 1012.5
20260501171423 62 204 2.0 4.0 0.00 0.03 0.00 46 1012.4
20260501171339 62 332 2.0 3.0 0.00 0.03 0.00 44 1012.5
20260501171250 62 67 2.0 3.0 0.00 0.03 0.00 43 1012.5
20260501171126 62 232 2.0 4.0 0.00 0.03 0.00 45 1012.6
20260501171042 62 358 4.0 5.0 0.00 0.03 0.00 44 1012.5
20260501170917 62 175 2.0 6.0 0.00 0.03 0.00 45 1012.4
20260501170829 62 195 5.0 6.0 0.00 0.03 0.00 45 1012.7
20260501170724 62 3 5.0 6.0 0.00 0.03 0.00 47 1012.7
20260501170620 62 331 4.0 9.0 0.00 0.03 0.00 46 1012.7
20260501170515 61 210 3.0 5.0 0.00 0.03 0.00 48 1012.8
20260501170427 62 109 3.0 5.0 0.00 0.03 0.00 44 1012.7
20260501170323 62 43 4.0 5.0 0.00 0.03 0.00 43 1012.8
20260501170218 62 351 2.0 3.0 0.00 0.03 0.00 45 1012.7
20260501170130 62 225 2.0 3.0 0.00 0.03 0.00 44 1012.6
20260501170025 62 158 2.0 5.0 0.00 0.03 0.00 45 1012.8
20260501165921 62 1 3.0 5.0 0.00 0.03 0.00 45 1012.8
20260501165817 62 307 4.0 11.0 0.00 0.03 0.00 45 1012.9
20260501165728 63 194 3.0 4.0 0.00 0.03 0.00 45 1012.6
20260501165624 62 43 3.0 3.0 0.00 0.03 0.00 44 1012.9
20260501165520 62 296 2.0 5.0 0.00 0.03 0.00 45 1012.9
20260501165415 62 289 2.0 6.0 0.00 0.03 0.00 46 1012.9
20260501165327 62 160 2.0 4.0 0.00 0.03 0.00 45 1012.6
20260501165222 62 182 3.0 8.0 0.00 0.03 0.00 44 1012.8
20260501165118 62 194 3.0 5.0 0.00 0.03 0.00 45 1013.0
20260501165049 62 317 2.0 6.0 0.00 0.03 0.00 42 1012.9
20260501164925 62 352 5.0 9.0 0.00 0.03 0.00 42 1013.1
20260501164821 62 344 3.0 7.0 0.00 0.03 0.00 43 1012.9
20260501164736 62 343 3.0 8.0 0.00 0.03 0.00 46 1013.1
20260501164628 61 8 4.0 7.0 0.00 0.03 0.00 47 1013.0
20260501164523 61 201 6.0 9.0 0.00 0.03 0.00 46 1012.9
20260501164419 61 172 4.0 5.0 0.00 0.03 0.00 42 1012.8
20260501164351 61 191 2.0 6.0 0.00 0.03 0.00 46 1013.0
20260501164226 61 156 3.0 6.0 0.00 0.03 0.00 43 1013.1
20260501164122 62 193 4.0 6.0 0.00 0.03 0.00 45 1013.0
20260501164017 61 232 3.0 6.0 0.00 0.03 0.00 49 1013.3
20260501163949 61 191 3.0 4.0 0.00 0.03 0.00 46 1013.0
20260501163824 61 189 3.0 6.0 0.00 0.03 0.00 44 1013.1
20260501163720 62 203 5.0 7.0 0.00 0.03 0.00 48 1013.2
20260501163615 62 198 5.0 6.0 0.00 0.03 0.00 44 1013.2
20260501163527 62 206 3.0 5.0 0.00 0.03 0.00 47 1013.2